Showing default

GALS 1, 22963

Orbit data source: Space-Track

GALS 1, 22963 is a Commonwealth of Independent States-origin payload satellite in GEO that was launched on Thu, 20 Jan 1994 UTC via a PROTON-K/DM-2M launch vehicle from the Tyuratam Missile And Space Complex (TTMTR). Payload-class satellites include a variety of spacecraft equipped with specific instruments for various scientific and technological missions. These include communications satellites like Starlink; space stations such as the ISS; scientific satellites like the Hubble; Earth observation satellites from companies like Planet Labs, Umbra, and HawkEye 360; GPS; miniature CubeSats for education and research; and military/defense satellites.

Not visible in the next 10 days
Identifier
22963, 1994-002A
Orbit
GEO
Country
Flag of CISCIS
Related business
Manufacturer
NPO PM
Mission
Non-operational Defense Communications
Bus & Motor
GALS, Unknown motor
Mass
2,600 kg wet, ~2,400 kg dry
Launch date (UTC)
1994-01-20 (32 years ago)
Launch vehicle
PROTON-K/DM-2M
Launch site
Tyuratam Missile And Space Complex (TTMTR)
Object type
Payload
Rocket body
Debris
Shape & HBR
Cyl + 2 Pan, 5.0 m
Radar Cross Section
34.346 m², Large (>1 m²)

Expand to show TLE details & history
Last TLE update: 1 day ago

TLE from 1 day ago
0 GALS 1
1 22963U 94002A   25291.77556505  .00000118  00000-0  00000-0 0  9996
2 22963  14.5584 355.6858 0012342 221.4879 128.1964  1.00233851116288
Epoch: 2025-10-18T18:36Z
TLE epoch observation values (Epoch: 2025-10-18T18:36:48.820Z)
Latitude
-2.55116°
Longitude
39.08103°
Altitude
35,829.653 km
Speed
3.072 km/s
True Right ascension
23h 03m 08s
True Declination
-2° 32' 55"
Sunlit
Object was in daylight at epoch
Visualization orbit readout
Latitude
Unknown
Longitude
Unknown
Altitude
Unknown
Speed
Unknown
Apparent Right ascension
Unknown
Apparent Declination
Unknown
Sunlit
N/A
Visualization observer readout
Local Sidereal Time
18:56:20
Azimuth
Unknown
Elevation
Unknown
Doppler factor
Unknown
Orbital elements
Apogee altitude
35,850.258 km
Perigee altitude
35,746.15 km
Semi-major axis
42,176.341 km
Eccentricity
0.00123
Inclination
14.5584°
RAAN
355.6858°
Arg. of periapsis
221.4879°
True anomaly
128.30744°
Mean anomaly
128.1964°
Eccentric anomaly
128.25193°
Mean motion
0.25058 °/min
Orbital period
1,436.69 mins
BSTAR
0
Loading maneuver chart data...
Computing Atmospheric mass density...
Loading historical data...
Loading historical data...
Loading historical data...
Loading historical data...
Loading historical data...
Loading historical data...
Loading historical data...

Documentation

Showing up to 5 results
|